Torna al catalogo

COSMOS 737

AttivoMilitareLEO
NORAD 7826·PAYLOAD·🇷🇺 Russia

Lanciato May 28, 1975 da Plesetsk Cosmodrome

Loading…

Prossimi Passaggi (prossime 24 ore)

TLE

AggiornatoSource: Space-Track

Epoca: Sep 14, 2026, 07:07 UTC

1 07826U 75045F   26257.29662105 -.00000016  00000-0  95421-6 0  9992
2 07826  74.0169 208.6816 0038020 284.0621 147.1260 12.41746100325400

Traccia COSMOS 737 in tempo reale con AllMySat

Download on the App Store